9M2SES-13 Weather Reports


time (UTC)temp
C
wind
direction
speed
KPH
gust
KPH
rain 1hr
cm
rain 24hr
cm
rain mn
cm
humidity
%
barometer
mb
20260504223334 26 0 0.0 0.0 0.00 0.00 0.05 95
20260504221332 26 0 0.0 24.1 0.00 0.00 0.05 95
20260504215331 26 0 0.0 11.3 0.00 0.00 0.05 95
20260504214330 25 0 0.0 0.0 0.00 0.00 0.05 95
20260504205326 25 315 0.0 24.1 0.00 0.00 0.05 95
20260504203325 26 315 0.0 24.1 0.00 0.00 0.05 95
20260504201326 26 0 0.0 24.1 0.00 0.00 0.05 95
20260504192319 26 270 0.0 0.0 0.00 0.00 0.05 95
20260504184316 25 270 0.0 24.1 0.00 0.00 0.05 95
20260504183316 26 270 0.0 75.6 0.00 0.00 0.05 95
20260504182315 25 180 0.0 49.9 0.00 0.00 0.05 95
20260504160304 27 315 0.0 24.1 0.00 0.05 0.05 95
20260504140255 27 315 11.3 11.3 0.00 0.05 0.05 95
20260504130250 27 270 0.0 24.1 0.00 0.05 0.05 95
20260504120247 27 90 0.0 24.1 0.00 0.05 0.05 95
20260504081229 30 180 11.3 88.5 0.00 0.05 0.05 95
20260504080229 30 270 49.9 62.8 0.00 0.05 0.05 95
20260504070223 28 180 0.0 62.8 0.03 0.05 0.05 95
20260504060218 25 225 24.1 140.0 0.00 0.03 0.05 95
20260504045213 26 270 24.1 202.8 0.00 0.00 0.05 95
20260504043211 28 180 49.9 62.8 0.00 0.00 0.05 95
20260504042210 28 180 0.0 62.8 0.00 0.00 0.05 95
20260504034208 28 270 24.1 75.6 0.00 0.00 0.05 91
20260504033206 28 270 49.9 140.0 0.00 0.00 0.05 95
20260504031204 30 270 24.1 88.5 0.00 0.00 0.05 95
20260504030203 31 270 24.1 101.4 0.00 0.00 0.05 95
20260504024202 30 270 11.3 49.9 0.00 0.00 0.05 95
20260504023201 30 270 0.0 49.9 0.00 0.00 0.05 95
20260504021159 30 270 11.3 49.9 0.00 0.00 0.05 95
20260504020158 31 315 0.0 62.8 0.00 0.00 0.05 95
20260504015158 31 315 11.3 62.8 0.00 0.00 0.05 95
20260504014157 30 0 11.3 62.8 0.00 0.00 0.05 95
20260504013156 30 270 49.9 88.5 0.00 0.00 0.05 95
20260504012155 30 270 37.0 62.8 0.00 0.00 0.05 95
20260504010154 30 270 11.3 62.8 0.00 0.00 0.05 95
20260504005152 28 270 24.1 37.0 0.00 0.00 0.05 95
20260504004151 27 270 0.0 24.1 0.00 0.00 0.05 95
20260504001149 27 315 0.0 24.1 0.00 0.00 0.05 95
20260503234147 26 0 11.3 24.1 0.00 0.00 0.05 95
20260503233146 26 315 0.0 11.3 0.00 0.00 0.05 95
20260503231145 26 315 0.0 24.1 0.00 0.00 0.05 95
20260503230145 26 180 0.0 24.1 0.00 0.00 0.05 95
20260503225144 26 180 0.0 0.0 0.00 0.00 0.05 95
20260503224144 26 180 0.0 0.0 0.00 0.00 0.05 95